Date String (YYYY-MM-DD hh:mm:ss) UTC,Instrument flags,absolute air pressure of the measurement (hPa),sample flow rate (lpm),inlet stack bypass flow (lpm),air temperature of the measurement (°C),ambient temperature measured by the external sensor (°C),aerosol sample conditioner tube jacket temperature (°C),OPC LED temperature (°C),internal box temperature (°C),relative humidity of the measurement (%),span deviation,mass concentration of particles derived from Lorenz-Mie calculation of OPC scattering (μg/m³),mass concentration of particles derived from Lorenz-Mie calculation of OPC scattering (μg/m³),mass concentration of particles derived from Lorenz-Mie calculation of OPC scattering (μg/m³)
DateTimeUTC,F1_M11,P_M11,Q1_M11,Q2_M11,T1_M11,T2_M11,T3_M11,T4_M11,T5_M11,U1_M11,ZSPAN_M11,X0_M11,X2_M11,X1_M11
2024-06-03 07:00:00,SystemResetWarning,0826.0,5.00,000.00,030.1,029.0,000.0,038.7,031.8,017.6,0000.0,0022.31,0005.43,0003.71
2024-06-03 07:01:00,SystemResetWarning,0826.0,5.00,000.00,030.2,029.2,000.0,038.7,031.9,017.5,0000.0,0023.57,0005.45,0003.70
2024-06-03 07:02:00,SystemResetWarning,0826.1,5.00,000.00,030.2,029.3,000.0,038.7,031.9,017.5,0000.0,0025.38,0005.49,0003.71
2024-06-03 07:03:00,SystemResetWarning,0826.0,5.00,000.00,030.2,029.4,000.0,038.7,031.9,017.5,0000.0,0025.02,0005.51,0003.71
2024-06-03 07:04:00,SystemResetWarning,0826.0,5.00,000.00,030.3,029.4,000.0,038.7,032.0,017.4,0000.0,0025.01,0005.46,0003.70
2024-06-03 07:05:00,SystemResetWarning,0826.0,5.00,000.00,030.3,029.5,000.0,038.7,032.0,017.4,0000.0,0023.62,0005.40,0003.69
2024-06-03 07:06:00,SystemResetWarning,0826.0,5.01,000.00,030.3,029.6,000.0,038.7,032.0,017.3,0000.0,0021.89,0005.37,0003.68
2024-06-03 07:07:00,SystemResetWarning,0826.0,5.00,000.00,030.3,029.6,000.0,038.7,032.1,017.3,0000.0,0021.41,0005.36,0003.67
2024-06-03 07:08:00,SystemResetWarning,0825.9,5.00,000.00,030.4,029.7,000.0,038.7,032.1,017.3,0000.0,0020.58,0005.31,0003.67
2024-06-03 07:09:00,SystemResetWarning,0825.9,5.00,000.00,030.4,029.7,000.0,038.7,032.1,017.2,0000.0,0018.77,0005.32,0003.68
2024-06-03 07:10:00,SystemResetWarning,0825.9,4.99,000.00,030.4,029.8,000.0,038.7,032.1,017.2,0000.0,0017.58,0005.20,0003.68
2024-06-03 07:11:00,SystemResetWarning,0825.9,4.99,000.00,030.5,029.8,000.0,038.7,032.2,017.2,0000.0,0017.56,0005.16,0003.69
2024-06-03 07:12:00,SystemResetWarning,0825.9,5.00,000.00,030.5,029.8,000.0,038.8,032.2,017.2,0000.0,0017.09,0005.17,0003.70
2024-06-03 07:13:00,SystemResetWarning,0825.9,5.00,000.00,030.5,029.9,000.0,038.8,032.2,017.1,0000.0,0015.95,0005.20,0003.70
2024-06-03 07:14:00,SystemResetWarning,0825.9,5.01,000.00,030.5,029.9,000.0,038.8,032.3,017.1,0000.0,0017.01,0005.18,0003.71
2024-06-03 07:15:00,SystemResetWarning,0825.8,5.00,000.00,030.6,029.9,000.0,038.8,032.3,017.1,0000.0,0017.84,0005.23,0003.72
2024-06-03 07:16:00,SystemResetWarning,0825.8,5.00,000.00,030.6,030.0,000.0,038.8,032.3,017.1,0000.0,0018.93,0005.22,0003.72
2024-06-03 07:17:00,SystemResetWarning,0825.8,5.00,000.00,030.6,030.0,000.0,038.9,032.3,017.1,0000.0,0019.70,0005.21,0003.72
2024-06-03 07:18:00,SystemResetWarning,0825.8,4.99,000.00,030.6,030.0,000.0,038.9,032.4,017.1,0000.0,0019.49,0005.19,0003.72
2024-06-03 07:19:00,SystemResetWarning,0825.8,5.00,000.00,030.7,030.0,000.0,038.9,032.4,017.1,0000.0,0020.76,0005.19,0003.72
2024-06-03 07:20:00,SystemResetWarning,0825.8,5.00,000.00,030.7,030.0,000.0,038.9,032.4,017.0,0000.0,0021.64,0005.19,0003.74
2024-06-03 07:21:00,SystemResetWarning,0825.8,4.99,000.00,030.7,030.1,000.0,039.0,032.5,017.0,0000.0,0022.32,0005.22,0003.75
2024-06-03 07:22:00,SystemResetWarning,0825.9,5.00,000.00,030.7,030.1,000.0,039.0,032.5,017.0,0000.0,0022.62,0005.22,0003.78
2024-06-03 07:23:00,SystemResetWarning,0825.9,5.00,000.00,030.7,030.1,000.0,039.0,032.5,017.0,0000.0,0023.08,0005.28,0003.79
2024-06-03 07:24:00,SystemResetWarning,0825.9,5.00,000.00,030.8,030.1,000.0,039.0,032.5,017.0,0000.0,0022.69,0005.26,0003.79
2024-06-03 07:25:00,SystemResetWarning,0825.9,5.01,000.00,030.8,030.1,000.0,039.0,032.5,016.9,0000.0,0021.70,0005.29,0003.81
2024-06-03 07:26:00,SystemResetWarning,0825.9,5.01,000.00,030.8,030.1,000.0,039.0,032.5,016.9,0000.0,0019.97,0005.30,0003.81
2024-06-03 07:27:00,SystemResetWarning,0825.9,4.99,000.00,030.8,030.1,000.0,039.1,032.5,016.8,0000.0,0018.56,0005.26,0003.81
2024-06-03 07:28:00,SystemResetWarning,0825.9,4.99,000.00,030.8,030.1,000.0,039.1,032.5,016.8,0000.0,0018.17,0005.25,0003.82
2024-06-03 07:29:00,SystemResetWarning,0825.8,5.00,000.00,030.8,030.2,000.0,039.1,032.5,016.8,0000.0,0017.90,0005.29,0003.82
2024-06-03 07:30:00,SystemResetWarning,0825.8,5.00,000.00,030.8,030.2,000.0,039.1,032.5,016.8,0000.0,0018.10,0005.33,0003.81
2024-06-03 07:31:00,SystemResetWarning,0825.8,5.00,000.00,030.8,030.2,000.0,039.1,032.5,016.8,0000.0,0018.67,0005.33,0003.81
2024-06-03 07:32:00,SystemResetWarning,0825.8,5.00,000.00,030.8,030.2,000.0,039.1,032.5,016.8,0000.0,0018.60,0005.32,0003.78
2024-06-03 07:33:00,SystemResetWarning,0825.8,5.00,000.00,030.8,030.2,000.0,039.1,032.5,016.8,0000.0,0019.26,0005.36,0003.76
2024-06-03 07:34:00,SystemResetWarning,0825.8,5.01,000.00,030.9,030.2,000.0,039.1,032.5,016.8,0000.0,0020.39,0005.32,0003.74
2024-06-03 07:35:00,SystemResetWarning,0825.8,5.00,000.00,030.9,030.2,000.0,039.2,032.6,016.7,0000.0,0020.80,0005.30,0003.75
2024-06-03 07:36:00,SystemResetWarning,0825.8,5.00,000.00,030.9,030.2,000.0,039.2,032.6,016.7,0000.0,0020.93,0005.21,0003.73
2024-06-03 07:37:00,SystemResetWarning,0825.8,5.00,000.00,030.9,030.2,000.0,039.2,032.6,016.7,0000.0,0022.41,0005.20,0003.72
2024-06-03 07:38:00,SystemResetWarning,0825.8,5.00,000.00,030.9,030.2,000.0,039.2,032.6,016.7,0000.0,0022.72,0005.29,0003.73
2024-06-03 07:39:00,SystemResetWarning,0825.7,5.00,000.00,030.9,030.2,000.0,039.2,032.6,016.7,0000.0,0024.47,0005.38,0003.72
2024-06-03 07:40:00,SystemResetWarning,0825.7,4.99,000.00,030.9,030.2,000.0,039.2,032.6,016.6,0000.0,0025.23,0005.44,0003.73
2024-06-03 07:41:00,SystemResetWarning,0825.7,5.00,000.00,030.9,030.2,000.0,039.2,032.6,016.7,0000.0,0025.32,0005.48,0003.75
2024-06-03 07:42:00,SystemResetWarning,0825.6,5.00,000.00,030.9,030.2,000.0,039.2,032.6,016.6,0000.0,0024.69,0005.51,0003.75
2024-06-03 07:43:00,SystemResetWarning,0825.6,5.00,000.00,030.9,030.2,000.0,039.2,032.6,016.4,0000.0,0026.83,0005.57,0003.75
2024-06-03 07:44:00,SystemResetWarning,0825.6,4.99,000.00,030.9,030.2,000.0,039.2,032.6,016.3,0000.0,0026.17,0005.49,0003.74
2024-06-03 07:45:00,SystemResetWarning,0825.6,4.99,000.00,030.9,030.2,000.0,039.3,032.6,016.3,0000.0,0023.95,0005.44,0003.73
2024-06-03 07:46:00,SystemResetWarning,0825.6,5.00,000.00,030.9,030.2,000.0,039.3,032.6,016.3,0000.0,0024.02,0005.47,0003.70
2024-06-03 07:47:00,SystemResetWarning,0825.6,5.00,000.00,030.9,030.2,000.0,039.3,032.6,016.2,0000.0,0024.07,0005.53,0003.70
2024-06-03 07:48:00,SystemResetWarning,0825.6,4.99,000.00,030.9,030.2,000.0,039.3,032.7,016.2,0000.0,0022.93,0005.54,0003.69
2024-06-03 07:49:00,SystemResetWarning,0825.6,4.99,000.00,031.0,030.2,000.0,039.3,032.6,016.2,0000.0,0023.08,0005.48,0003.68
2024-06-03 07:50:00,SystemResetWarning,0825.5,5.01,000.00,031.0,030.2,000.0,039.3,032.7,016.1,0000.0,0022.57,0005.42,0003.66
2024-06-03 07:51:00,SystemResetWarning,0825.6,5.00,000.00,031.0,030.2,000.0,039.3,032.7,016.0,0000.0,0022.31,0005.31,0003.63
2024-06-03 07:52:00,SystemResetWarning,0825.5,5.00,000.00,031.0,030.2,000.0,039.3,032.7,016.0,0000.0,0020.99,0005.21,0003.60
2024-06-03 07:53:00,SystemResetWarning,0825.5,5.01,000.00,031.0,030.2,000.0,039.3,032.7,015.9,0000.0,0020.18,0005.16,0003.58
2024-06-03 07:54:00,SystemResetWarning,0825.5,5.00,000.00,031.0,030.2,000.0,039.3,032.7,015.9,0000.0,0018.60,0005.13,0003.56
2024-06-03 07:55:00,SystemResetWarning,0825.4,5.00,000.00,031.0,030.2,000.0,039.3,032.7,015.9,0000.0,0018.21,0005.21,0003.55
2024-06-03 07:56:00,SystemResetWarning,0825.4,4.99,000.00,031.0,030.3,000.0,039.3,032.7,015.8,0000.0,0018.32,0005.22,0003.54
2024-06-03 07:57:00,SystemResetWarning,0825.5,4.99,000.00,031.0,030.3,000.0,039.3,032.7,015.8,0000.0,0017.30,0005.20,0003.54
2024-06-03 07:58:00,SystemResetWarning,0825.5,5.00,000.00,031.0,030.3,000.0,039.4,032.7,015.8,0000.0,0018.05,0005.20,0003.54
2024-06-03 07:59:00,SystemResetWarning,0825.5,5.01,000.00,031.0,030.3,000.0,039.4,032.7,015.9,0000.0,0018.42,0005.17,0003.54
